Location: Kuppenheim
(48.8299°N, 8.2568°E)
Time: 08:23:36
(UTC+00:00)

FALCON 9 DEB - Pass Details

Date: 20 June 2021
Orbit: 364 x 377 km, 53.0° (Epoch: 26 July)

Event Time Altitude Azimuth Distance (km) Brightness Sun altitude
Rises 00:55:02 0° 291° (WNW) 2,270 6.8 -15.2°
Reaches altitude 10° 00:57:08 10° 298° (WNW) 1,414 5.8 -15.1°
Maximum altitude 01:00:13 46° 14° (NNE) 528 4.0 -14.9°
Drops below altitude 10° 01:03:16 10° 89° (E) 1,407 6.0 -14.7°
Sets 01:05:21 0° 96° (E) 2,257 7.0 -14.6°
